[[{"header":{"parameterUnit":"m.s-1","parameterCategory":1,"la1":30.2991,"la2":30.254,"lo1":-89.0895,"lo2":-89.0444,"dy":0.0017,"dx":0.0017,"nx":28,"ny":28,"refTime":"2024-12-20T03:00:00:Z","depth":0,"parameterNumber":2,"parameterNumberName":"U-component_of_WINDS"},"data":[0,0,0,0,0,0,0,0,0,0,0,0,0,0,0,0,0,0,0,0,0,0,0,0,0,0,0,0,0,0,0,0,0,0,0,0,0,0,0,0,0,0,0,0,0,0,0,0,0,0,0,0,0,0,0,0,0,0,1.3721,1.3721,0,1.3709,1.3709,1.3709,1.3687,1.3686,1.3686,1.3686,1.3673,1.3673,1.3673,0,0,0,0,0,0,0,0,0,0,0,0,0,1.3723,1.3723,1.3721,1.3721,1.3721,1.3709,1.3709,1.3709,1.3687,1.3686,1.3686,1.3685,1.3673,1.3673,1.3673,0,0,0,0,0,0,0,0,0,0,0,0,0,1.3718,1.3724,1.3721,1.3708,1.3707,1.3709,1.3709,1.3709,1.3687,1.3686,1.3686,1.3685,1.3673,1.3673,1.3673,1.3687,0,0,1.3673,1.3673,0,0,0,0,0,0,0,0,1.3718,1.3718,1.371,1.3709,1.3708,1.3699,1.3706,1.3702,1.3687,1.3695,1.3686,1.3685,1.3682,1.3681,1.3681,1.3686,1.3686,1.3673,1.3673,1.3674,1.3674,0,0,0,0,0,0,0,1.3719,1.3718,1.3716,1.371,1.3709,1.3703,1.3702,1.3705,1.3692,1.3694,1.3692,1.3691,1.3681,1.3681,1.368,1.3685,1.3673,1.3673,1.3674,1.3674,1.3702,1.3703,0,0,0,0,0,0,1.3721,1.3719,1.3717,1.3716,1.3712,1.3704,1.3702,1.3702,1.3692,1.369,1.3692,1.369,1.3681,1.368,1.368,1.3695,1.3674,1.3674,1.3674,1.3702,1.3702,1.3703,0,0,0,0,0,0,1.3721,1.3721,1.3717,1.3717,1.3716,1.3704,1.3705,1.3702,1.3702,1.369,1.3688,1.3693,1.368,1.3679,1.3685,1.3694,1.3674,1.3674,1.3701,1.3702,1.3703,1.3725,0,0,0,0,0,0,1.3721,1.3721,1.3726,1.3717,1.3716,1.3723,1.3705,1.3703,1.3702,1.37,1.3691,1.3689,1.368,1.3685,1.3685,1.3694,1.3674,1.37,1.3701,1.3702,1.3724,1.3727,1.373,0,0,0,0,0,1.3722,1.3733,1.3727,1.3726,1.3722,1.3724,1.3723,1.3712,1.3703,1.3708,1.3701,1.3689,1.3694,1.3686,1.3686,1.3695,1.3699,1.3701,1.3702,1.3722,1.3727,1.373,0,0,0,0,0,0,1.3743,1.3731,1.3724,1.3733,1.373,1.372,1.3725,1.3716,1.3715,1.3713,1.3699,1.3697,1.3705,1.3701,1.3693,1.3708,1.3695,1.3696,1.371,1.3714,1.3717,1.3717,1.3674,0,0,0,0,0,1.3748,1.3751,1.3741,1.3749,1.3748,1.3737,1.3737,1.3729,1.3725,1.3723,1.3716,1.3712,1.3713,1.3713,1.3713,1.3724,1.3721,1.373,1.3733,1.3735,1.3737,1.3742,1.3745,1.3708,1.3708,1.3708,0,0,1.376,1.3754,1.3756,1.3753,1.375,1.3752,1.3736,1.3739,1.3741,1.3724,1.3728,1.3724,1.3719,1.3727,1.373,1.3723,1.3747,1.3737,1.374,1.3739,1.3744,1.3748,1.3751,1.3709,1.3709,1.3709,0,0,1.3782,1.3778,1.3785,1.3782,1.3777,1.377,1.3772,1.3764,1.376,1.3765,1.3752,1.3754,1.3755,1.3752,1.375,1.3773,1.3763,1.3774,1.3789,1.3795,1.3797,1.38,1.3808,1.3811,1.3775,1.3775,1.3775,0,1.3797,1.38,1.3789,1.3794,1.3793,1.3778,1.3785,1.3783,1.3778,1.3777,1.377,1.3771,1.3767,1.3774,1.378,1.378,1.3781,1.3774,1.3798,1.38,1.3803,1.381,1.3813,1.3776,1.3776,1.3776,1.3776,0,1.3819,1.3821,1.3827,1.3823,1.3823,1.3829,1.3819,1.3821,1.3813,1.3807,1.3813,1.3807,1.3805,1.3807,1.3799,1.3814,1.381,1.3801,1.3787,1.3808,1.3814,1.3817,1.3778,1.3778,1.3777,1.3777,0,0,1.3852,1.3843,1.3845,1.3843,1.3838,1.3839,1.3845,1.3844,1.3845,1.3843,1.3846,1.3848,1.384,1.3838,1.3831,1.3836,1.3854,1.3826,1.3826,1.3831,1.3869,1.3875,1.3878,1.3848,1.3848,1.3849,1.3869,0,1.3872,1.388,1.3871,1.3881,1.3883,1.3871,1.3875,1.3872,1.3867,1.3868,1.3863,1.3864,1.3853,1.3852,1.3857,1.3851,1.3861,1.3849,1.385,1.3851,1.3851,1.3882,1.3888,1.3907,1.3872,1.3872,1.3872,0,1.3895,1.3895,1.3905,1.3899,1.39,1.3904,1.3903,1.3905,1.3901,1.3897,1.3896,1.3887,1.3892,1.388,1.3887,1.3879,1.3879,1.3876,1.3877,1.3875,1.3862,1.388,1.3913,1.3916,1.3876,1.3876,1.3876,0,1.3918,1.392,1.3926,1.3925,1.3919,1.3922,1.3919,1.3915,1.3916,1.3915,1.3915,1.3914,1.3914,1.3914,1.3905,1.3898,1.3913,1.39,1.3909,1.3909,1.3912,1.3911,1.3944,1.3914,1.3914,1.3914,1.3914,0,1.394,1.3947,1.3936,1.394,1.3947,1.3938,1.3945,1.3941,1.3938,1.3941,1.393,1.3933,1.3922,1.3924,1.3918,1.3924,1.3924,1.3921,1.3918,1.3921,1.3921,1.392,1.3918,1.3915,1.3914,1.3914,1.3914,0,1.3965,1.3959,1.3965,1.3959,1.3957,1.3963,1.3958,1.3961,1.3956,1.396,1.396,1.3952,1.3954,1.3946,1.3946,1.3942,1.3951,1.3947,1.3952,1.395,1.396,1.3958,1.3992,1.3996,1.3964,1.3964,1.3964,0,1.398,1.3984,1.3979,1.3981,1.3979,1.3981,1.3982,1.3973,1.3974,1.3971,1.3975,1.3976,1.3976,1.398,1.3974,1.3974,1.397,1.3981,1.3969,1.3972,1.3969,1.3968,1.3968,1.3983,1.3984,1.3984,1.3984,0,1.4005,1.4002,1.4003,1.4003,1.4004,1.4004,1.4003,1.4005,1.3995,1.3997,1.3999,1.3999,1.4,1.4001,1.4001,1.3998,1.3989,1.3988,1.399,1.3992,1.3994,1.3993,1.3958,1.3987,1.3987,1.3987,1.3987,1.3986,1.4025,1.4028,1.4026,1.4027,1.4026,1.4026,1.4029,1.4025,1.4026,1.4026,1.4021,1.4024,1.4022,1.402,1.4018,1.4021,1.4015,1.4018,1.4019,1.4019,1.402,1.3995,1.4021,1.4021,1.402,1.402,1.402,0,1.4049,1.4047,1.4049,1.4048,1.405,1.4043,1.4042,1.4043,1.4046,1.4045,1.4046,1.4048,1.405,1.4044,1.4045,1.4048,1.4044,1.4048,1.4047,1.4047,1.4026,1.4024,1.4051,1.4051,1.4051,1.4051,1.4051,1.4051,1.4062,1.4068,1.4064,1.407,1.4068,1.4071,1.4071,1.4071,1.4069,1.4073,1.4074,1.4071,1.4068,1.4069,1.407,1.4069,1.4069,1.4074,1.4071,1.4051,1.4048,1.4045,1.4043,1.4075,1.4075,1.4092,1.4092,1.4093]},{"header":{"parameterUnit":"m.s-1","parameterCategory":1,"la1":30.2991,"la2":30.254,"lo1":-89.0895,"lo2":-89.0444,"dy":0.0017,"dx":0.0017,"nx":28,"ny":28,"refTime":"2024-12-20T03:00:00:Z","depth":0,"parameterNumber":3,"parameterNumberName":"V-component_of_WINDS"},"data":[0,0,0,0,0,0,0,0,0,0,0,0,0,0,0,0,0,0,0,0,0,0,0,0,0,0,0,0,0,0,0,0,0,0,0,0,0,0,0,0,0,0,0,0,0,0,0,0,0,0,0,0,0,0,0,0,0,0,-2.9384,-2.9385,0,-2.9491,-2.9493,-2.9494,-2.9448,-2.9446,-2.9443,-2.944,-2.9551,-2.9556,-2.9562,0,0,0,0,0,0,0,0,0,0,0,0,0,-2.9142,-2.9147,-2.9384,-2.9386,-2.9387,-2.9491,-2.9493,-2.9494,-2.9449,-2.9445,-2.9442,-2.9439,-2.955,-2.9556,-2.9562,0,0,0,0,0,0,0,0,0,0,0,0,0,-2.9248,-2.9148,-2.9384,-2.9377,-2.9377,-2.9491,-2.9493,-2.9494,-2.9449,-2.9445,-2.9441,-2.9438,-2.9547,-2.9555,-2.9563,-2.9691,0,0,-2.9588,-2.9591,0,0,0,0,0,0,0,0,-2.9242,-2.9257,-2.9376,-2.9377,-2.9378,-2.9452,-2.9448,-2.956,-2.945,-2.9422,-2.944,-2.9436,-2.9522,-2.9532,-2.956,-2.9696,-2.9701,-2.9588,-2.9593,-2.9597,-2.9599,0,0,0,0,0,0,0,-2.9235,-2.9252,-2.9427,-2.9378,-2.9379,-2.9369,-2.9379,-2.9469,-2.9492,-2.9424,-2.9421,-2.9434,-2.9521,-2.9553,-2.9562,-2.9702,-2.9588,-2.9595,-2.96,-2.9604,-2.9949,-2.9953,0,0,0,0,0,0,-2.9227,-2.9246,-2.9423,-2.943,-2.9299,-2.9376,-2.9388,-2.9432,-2.9491,-2.9496,-2.9437,-2.9432,-2.9541,-2.9553,-2.9566,-2.972,-2.9597,-2.9604,-2.9609,-2.9945,-2.995,-2.9955,0,0,0,0,0,0,-2.9222,-2.9243,-2.9419,-2.9337,-2.9359,-2.9384,-2.9435,-2.9437,-2.9468,-2.9501,-2.9505,-2.9465,-2.9538,-2.9555,-2.966,-2.9723,-2.9608,-2.9615,-2.9939,-2.9946,-2.9952,-3.0029,0,0,0,0,0,0,-2.9215,-2.9242,-2.929,-2.9339,-2.9363,-2.9511,-2.9438,-2.9442,-2.9482,-2.9475,-2.9528,-2.9533,-2.9536,-2.9648,-2.9668,-2.9732,-2.9622,-2.9934,-2.9942,-2.995,-3.0021,-3.0037,-3.0051,0,0,0,0,0,-2.9207,-2.9307,-2.9293,-2.9314,-2.9424,-2.9515,-2.9529,-2.953,-2.9487,-2.9536,-2.9558,-2.9532,-2.9713,-2.966,-2.9681,-2.9749,-2.993,-2.994,-2.995,-3.0014,-3.0034,-3.0051,0,0,0,0,0,0,-2.9266,-2.9314,-2.9298,-2.9417,-2.9462,-2.9507,-2.9569,-2.9551,-2.9609,-2.9601,-2.96,-2.9613,-2.9722,-2.9746,-2.9685,-2.9876,-2.9815,-2.983,-2.9856,-2.9876,-2.9891,-2.9883,-2.9628,0,0,0,0,0,-2.9293,-2.9362,-2.94,-2.9501,-2.9525,-2.9543,-2.9582,-2.9579,-2.9626,-2.9645,-2.9674,-2.9721,-2.9789,-2.9833,-2.9897,-3.0024,-3.0035,-3.0081,-3.0096,-3.0108,-3.0121,-3.0191,-3.0212,-2.9987,-2.9987,-2.9986,0,0,-2.9349,-2.9383,-2.9427,-2.9514,-2.9549,-2.9621,-2.9559,-2.9638,-2.9692,-2.9657,-2.9759,-2.9782,-2.9834,-2.9951,-3.0004,-2.9974,-3.0186,-3.0121,-3.013,-3.0137,-3.0203,-3.0224,-3.0243,-2.9993,-2.9992,-2.9991,0,0,-2.9488,-2.9521,-2.961,-2.9646,-2.9699,-2.971,-2.9732,-2.9779,-2.9794,-2.9895,-2.9871,-2.9935,-3.0051,-3.009,-3.0125,-3.028,-3.0258,-3.03,-3.038,-3.0448,-3.0466,-3.0481,-3.0538,-3.0558,-3.0313,-3.0313,-3.0313,0,-2.9552,-2.9659,-2.9658,-2.9739,-2.9778,-2.975,-2.984,-2.9875,-2.9947,-2.9975,-2.994,-3.0086,-3.0119,-3.0245,-3.0283,-3.0312,-3.0337,-3.0295,-3.0463,-3.0479,-3.0494,-3.0547,-3.0568,-3.0318,-3.0317,-3.0317,-3.0316,0,-2.9735,-2.981,-2.9875,-2.9945,-2.9991,-3.0077,-3.0089,-3.0136,-3.0129,-3.0145,-3.0249,-3.0288,-3.036,-3.0389,-3.0383,-3.0515,-3.0495,-3.0462,-3.0401,-3.052,-3.0571,-3.0591,-3.0325,-3.0323,-3.0322,-3.0321,0,0,-2.9915,-2.9983,-3.0007,-3.0039,-3.0096,-3.0154,-3.0238,-3.0308,-3.0349,-3.0399,-3.0471,-3.057,-3.054,-3.058,-3.0578,-3.0637,-3.0759,-3.0597,-3.0598,-3.0627,-3.0908,-3.0933,-3.0957,-3.0745,-3.0749,-3.0752,-3.0904,0,-3.006,-3.0207,-3.0209,-3.0345,-3.0414,-3.0389,-3.0462,-3.0505,-3.0522,-3.0584,-3.0603,-3.0674,-3.0628,-3.0652,-3.071,-3.0732,-3.0816,-3.0721,-3.0812,-3.0816,-3.0801,-3.0983,-3.101,-3.1151,-3.0923,-3.0927,-3.0929,0,-3.0248,-3.0305,-3.0448,-3.0495,-3.0524,-3.059,-3.0655,-3.0714,-3.0763,-3.0771,-3.0816,-3.0805,-3.0892,-3.0828,-3.0948,-3.0883,-3.0921,-3.0937,-3.0943,-3.0952,-3.088,-3.0998,-3.1196,-3.1218,-3.096,-3.0958,-3.0955,0,-3.0367,-3.0478,-3.0579,-3.0606,-3.0664,-3.0711,-3.0737,-3.0782,-3.0824,-3.0881,-3.0908,-3.0975,-3.1011,-3.1063,-3.1071,-3.1023,-3.1192,-3.1128,-3.1202,-3.1202,-3.1239,-3.1237,-3.1447,-3.1262,-3.1262,-3.1261,-3.1261,0,-3.0529,-3.0617,-3.0633,-3.0694,-3.0793,-3.0794,-3.0892,-3.0915,-3.0955,-3.1021,-3.1003,-3.1065,-3.1071,-3.1136,-3.1143,-3.1242,-3.1258,-3.1268,-3.1269,-3.1271,-3.127,-3.1296,-3.1287,-3.1267,-3.1266,-3.1264,-3.1263,0,-3.0678,-3.0692,-3.0799,-3.0845,-3.0858,-3.0929,-3.0969,-3.1028,-3.1043,-3.1127,-3.1147,-3.1171,-3.1246,-3.1259,-3.1347,-3.1352,-3.1471,-3.1461,-3.1455,-3.1454,-3.1528,-3.1521,-3.1763,-3.1795,-3.1588,-3.159,-3.1591,0,-3.0781,-3.0849,-3.0901,-3.0944,-3.0973,-3.1042,-3.1085,-3.1089,-3.1135,-3.1196,-3.1248,-3.1322,-3.1381,-3.1503,-3.1528,-3.1596,-3.1589,-3.1669,-3.1599,-3.1599,-3.1591,-3.1588,-3.1595,-3.1683,-3.1685,-3.1687,-3.1688,0,-3.0963,-3.0966,-3.1029,-3.1094,-3.1146,-3.1198,-3.1247,-3.1283,-3.1293,-3.1346,-3.1423,-3.1468,-3.1559,-3.1633,-3.1701,-3.1728,-3.1711,-3.171,-3.1731,-3.1733,-3.1727,-3.1733,-3.1493,-3.1704,-3.1703,-3.1702,-3.1701,-3.17,-3.1093,-3.1152,-3.1199,-3.1269,-3.1307,-3.1353,-3.1411,-3.1433,-3.1497,-3.1571,-3.157,-3.1654,-3.1702,-3.1791,-3.1823,-3.189,-3.1865,-3.1895,-3.1902,-3.191,-3.1918,-3.1716,-3.1902,-3.1902,-3.1902,-3.1901,-3.1901,0,-3.1275,-3.1303,-3.1368,-3.1437,-3.1493,-3.1471,-3.1524,-3.1573,-3.1647,-3.1693,-3.1751,-3.184,-3.1912,-3.1943,-3.2014,-3.2061,-3.2055,-3.208,-3.2077,-3.2084,-3.1936,-3.1912,-3.2084,-3.2084,-3.2084,-3.2084,-3.2084,-3.2083,-3.1376,-3.1475,-3.1484,-3.1603,-3.1631,-3.1713,-3.1746,-3.1789,-3.1826,-3.1926,-3.1985,-3.2004,-3.2045,-3.2118,-3.2183,-3.2191,-3.2218,-3.2247,-3.2251,-3.2113,-3.2094,-3.2076,-3.2053,-3.2252,-3.2253,-3.2393,-3.2394,-3.2395]}]]